Wetbulb
40.42 37.87 35.40 36.92 40.37 39.38 38.29 35.76 33.55 35.49 39.50 37.82 36.32 36.22 40.02 40.31 38.49 39.21 39.92 40.88 45.96 51.85 56.01 57.28 58.31 59.28 60.03 60.45 61.04 61.64 61.98 62.76 62.43 61.83 61.31 61.13 61.15 62.11 62.77 63.00 62.51 61.69 60.66 59.05
36.80 35.24 37.10 39.58 37.95 37.04 34.42 33.30 32.62 35.01 36.01 36.13 34.86 34.95 38.66 38.26 39.14 39.47 40.08 39.96 41.37 43.83 47.42 51.34 54.50 57.40 58.77 60.29 60.54 60.71 61.43 62.12 62.34 62.42 62.45 62.10 62.01 62.27 62.96 63.34 62.92 62.21 61.23 59.94
35.19 35.90 38.86 37.37 34.40 33.73 31.98 31.46 31.72 33.68 33.99 34.35 33.11 32.82 35.39 38.77 37.98 39.09 39.51 40.76 41.07 42.69 44.50 45.86 46.70 51.32 56.70 58.38 59.78 60.62 61.12 61.62 62.12 62.66 62.08 60.06 60.98 61.02 61.29 61.55 62.25 62.37 62.08 61.04
35.90 37.12 36.17 34.16 32.95 34.29 29.60 34.85 34.37 33.19 31.63 28.29 32.16 26.31 32.76 36.14 36.65 36.57 39.53 39.63 41.20 42.03 43.23 44.10 43.81 43.72 47.90 54.54 58.64 60.05 61.21 61.37 61.57 62.43 61.39 61.03 60.84 60.05 61.27 61.67 62.00 61.38 61.77 61.35
33.38 32.76 32.85 33.59 33.86 36.03 33.35 35.01 33.66 32.44 29.85 27.26 26.90 26.17 29.72 32.61 32.85 35.84 38.27 39.29 41.62 43.96 44.77 43.71 42.91 43.70 42.80 44.71 51.81 57.45 59.27 60.73 61.33 61.67 61.98 61.28 60.99 61.66 61.83 59.54 60.11 60.52 60.29 60.67
33.78 35.39 36.86 35.96 35.07 37.22 35.18 32.94 31.51 28.44 28.02 23.73 27.65 28.29 27.33 31.48 35.03 37.43 39.32 39.50 42.20 42.86 40.54 40.73 40.68 40.78 41.31 41.52 44.03 51.52 56.55 58.58 60.06 60.83 61.41 61.08 60.99 60.81 59.04 58.87 58.99 59.36 59.80 59.85
30.19 30.46 32.53 34.76 31.75 32.98 33.33 32.21 24.90 23.08 22.13 22.84 25.72 24.75 31.96 35.08 36.84 37.26 39.64 40.08 38.63 38.65 39.03 38.67 38.51 38.70 39.13 40.35 41.14 46.70 53.53 56.08 58.69 59.77 60.30 60.78 60.77 60.61 59.55 59.44 59.01 58.42 59.03 59.30
29.28 26.44 31.38 33.94 32.91 30.39 32.04 31.77 25.20 18.74 18.54 22.46 25.43 24.67 30.90 35.68 37.41 37.19 37.78 37.41 37.33 37.59 39.70 40.09 39.40 38.52 40.22 41.40 42.53 44.44 49.94 54.12 57.66 58.95 59.74 60.74 60.91 60.59 60.50 60.49 59.23 59.10 59.48 60.00
29.39 28.09 32.42 34.66 35.83 37.26 30.87 28.93 33.33 24.77 13.37 19.18 24.24 27.47 32.57 35.76 36.69 34.77 35.83 35.75 37.60 37.48 38.10 39.97 40.18 40.45 42.19 43.40 44.28 44.74 45.59 49.47 52.95 56.56 58.50 59.31 60.05 60.38 60.26 59.65 59.47 59.69 59.54 58.42
32.14 27.76 31.98 33.95 36.75 35.92 34.14 36.04 29.18 26.79 17.21 16.12 22.27 24.03 27.97 32.38 34.47 34.25 35.70 35.43 36.25 36.68 37.46 39.15 40.08 41.41 43.41 44.70 45.43 45.91 45.69 45.53 45.98 47.31 49.16 50.79 52.22 54.39 57.79 58.57 58.26 58.61 58.38 56.47
33.38 31.09 28.87 33.33 32.18 30.62 30.83 30.50 29.02 31.14 27.50 20.73 16.59 24.66 30.34 33.53 33.33 34.07 34.58 34.93 36.48 36.51 37.13 38.73 39.96 41.70 42.76 44.25 45.61 46.04 46.33 46.38 46.49 45.98 45.21 44.01 43.84 43.77 46.89 54.47 56.51 56.23 54.85 54.76
33.67 31.02 25.94 28.42 32.45 34.01 34.17 33.03 34.22 29.30 22.30 23.10 22.58 25.44 32.73 32.78 33.51 33.37 33.93 35.55 35.31 35.91 36.82 38.04 39.78 40.63 41.22 43.43 45.30 46.04 46.12 46.61 46.59 47.02 46.98 48.55 48.81 49.00 47.12 50.29 52.75 52.90 53.60 52.57
35.12 29.06 22.60 26.93 31.09 31.41 31.19 30.72 34.03 29.60 27.79 22.21 22.00 28.55 32.71 31.03 32.98 33.53 34.10 34.93 35.74 35.08 36.67 37.42 38.24 39.67 40.71 41.97 43.91 44.92 45.26 45.89 46.36 46.51 48.55 48.99 49.53 50.23 50.84 51.38 50.73 49.95 49.04 47.89
40.06 30.84 29.99 26.02 27.86 30.57 29.42 30.90 31.38 32.53 25.39 26.78 28.91 31.25 30.28 34.25 34.58 34.88 35.69 36.16 36.73 35.59 36.09 36.65 37.76 38.63 39.47 40.40 41.70 43.17 43.86 44.76 45.45 47.72 48.81 48.99 49.22 49.67 49.15 48.27 47.53 46.91 46.71 45.90
36.65 32.20 28.56 28.16 29.61 32.02 30.57 30.84 31.80 31.91 34.00 28.59 32.69 30.94 33.35 34.79 35.26 34.42 35.15 36.72 37.15 36.14 34.90 34.94 36.40 37.72 38.50 39.05 39.63 41.07 42.91 43.10 45.52 47.40 47.97 48.07 47.65 46.93 45.93 44.83 44.09 43.24 43.12 42.49
34.46 25.31 28.38 25.68 29.36 28.66 26.76 31.60 33.22 33.46 34.14 34.19 34.01 29.35 33.17 38.27 33.05 33.13 35.36 36.55 37.88 38.14 37.07 36.14 35.77 36.70 37.87 38.72 39.33 39.37 41.03 42.47 44.46 46.30 46.32 45.40 44.31 42.58 41.81 40.58 39.14 38.75 37.91 37.83
32.48 27.67 24.40 26.19 28.04 28.13 23.64 29.93 31.21 33.09 34.93 34.99 30.87 34.86 34.99 34.18 34.87 35.91 37.34 37.06 36.89 37.27 37.76 37.47 37.66 37.83 37.76 39.20 39.62 39.94 40.25 41.51 42.71 44.46 42.86 41.19 40.34 39.04 38.39 37.61 37.07 36.61 36.48 35.93
33.45 31.74 27.29 21.62 23.50 19.51 31.95 34.82 35.58 33.32 35.14 36.45 37.01 33.86 34.67 36.08 37.34 37.28 36.52 37.34 36.27 35.36 36.75 37.26 37.86 38.24 38.64 38.27 38.82 38.99 39.53 40.66 40.77 39.50 39.29 38.73 38.64 38.15 37.03 36.63 36.39 35.16 35.05 34.94
34.69 32.10 24.98 21.69 12.64 24.62 30.77 29.32 28.56 28.95 32.23 35.66 35.40 37.43 34.40 33.53 32.00 35.28 36.24 36.19 38.30 38.97 38.61 37.75 37.52 37.34 37.19 37.98 38.24 38.00 37.02 37.99 39.38 38.78 38.44 37.95 37.76 36.22 35.73 35.20 34.82 32.99 32.86 31.96
32.71 34.31 30.61 15.76 22.87 18.87 27.26 34.01 31.94 33.69 27.21 35.12 36.07 36.24 35.05 33.63 33.18 38.38 40.09 38.40 37.16 36.16 35.75 35.69 34.99 35.99 36.36 36.35 36.17 35.88 35.95 36.65 38.89 40.65 39.30 37.50 36.50 36.21 35.36 35.25 33.38 31.30 32.19 31.34
27.39 26.52 27.25 17.33 24.69 22.98 29.26 29.68 34.96 25.61 27.88 34.82 34.09 35.56 35.22 33.92 39.55 36.57 35.73 34.42 34.57 34.69 33.81 33.80 33.72 34.59 34.43 34.23 34.13 34.94 34.61 36.23 37.86 38.09 35.43 34.35 33.58 35.11 35.40 33.14 30.27 30.57 29.65 27.97
28.41 28.08 26.95 24.99 23.50 22.63 29.82 29.83 30.40 35.13 35.75 34.19 33.66 33.64 32.67 32.58 32.10 33.40 33.29 34.35 34.05 33.24 33.48 32.90 33.20 32.52 31.75 33.14 33.72 33.74 33.59 33.57 32.58 32.48 33.17 33.39 32.94 32.22 32.27 32.33 29.75 28.18 27.27 25.89
25.17 30.24 26.22 30.47 29.45 32.08 29.80 33.02 32.75 33.90 34.56 34.00 34.82 34.57 31.61 33.13 32.72 32.84 32.57 31.97 31.99 31.37 31.62 30.67 30.84 30.93 29.44 30.53 30.56 30.18 30.50 30.37 28.71 29.98 29.29 29.48 29.23 30.73 30.12 29.22 26.66 26.47 26.71 26.66
28.42 31.33 28.30 29.17 30.70 31.23 31.55 32.75 33.47 33.75 33.87 34.47 34.59 34.61 34.46 33.80 32.02 31.80 31.75 30.95 30.12 29.11 28.56 26.61 25.70 25.36 24.73 23.57 25.62 27.08 27.62 26.65 27.27 25.89 24.99 25.07 26.25 24.74 24.97 27.93 28.30 27.65 26.88 26.30
30.36 31.61 24.96 24.47 28.15 31.23 31.64 33.01 33.68 32.56 32.88 32.04 31.40 32.03 32.98 32.53 30.33 30.40 29.89 28.98 28.27 27.28 24.30 23.89 24.49 23.65 21.73 20.94 21.03 20.75 23.24 26.05 26.07 24.82 23.66 24.27 24.93 25.48 24.17 25.31 27.02 27.85 25.61 29.27
28.66 28.65 30.72 29.32 32.41 33.60 33.44 32.94 32.76 31.79 31.40 31.18 30.53 28.88 28.49 30.60 30.09 28.53 27.69 26.65 25.08 23.15 20.98 21.94 20.61 19.96 18.78 18.96 18.86 18.61 18.33 22.56 24.15 22.89 23.01 23.95 23.97 23.01 24.14 24.76 22.98 28.63 28.57 30.14
MSLP
1016.61 1017.16 1017.34 1018.07 1018.62 1018.31 1018.61 1018.86 1018.93 1018.61 1018.15 1018.14 1018.23 1018.26 1017.46 1017.46 1017.76 1017.78 1017.97 1017.88 1017.68 1017.58 1017.02 1017.70 1018.03 1018.39 1018.78 1019.29 1019.59 1019.76 1020.36 1020.59 1021.16 1021.79 1022.34 1022.74 1022.66 1022.80 1022.85 1022.92 1023.19 1023.57 1023.94 1024.41
1017.07 1016.89 1017.67 1018.11 1018.87 1018.50 1018.79 1018.96 1018.97 1018.78 1018.37 1018.70 1018.45 1018.11 1017.40 1017.27 1017.13 1017.02 1016.94 1017.02 1016.80 1016.91 1016.84 1016.94 1017.39 1017.98 1018.15 1018.27 1018.61 1019.05 1019.14 1019.64 1020.09 1020.64 1020.98 1021.36 1021.74 1022.02 1021.88 1022.12 1022.47 1022.78 1023.25 1023.66
1016.24 1016.63 1017.46 1017.78 1018.54 1018.90 1019.03 1019.07 1019.23 1019.31 1019.01 1019.08 1019.03 1018.18 1017.15 1016.31 1016.43 1016.32 1016.23 1016.12 1015.99 1015.97 1016.06 1016.02 1016.50 1016.75 1017.30 1017.39 1017.44 1017.71 1018.20 1018.78 1019.14 1019.71 1020.35 1021.01 1021.37 1021.65 1021.80 1021.96 1022.07 1022.22 1022.39 1022.75
1016.23 1016.55 1016.94 1017.73 1018.23 1018.49 1019.11 1018.93 1019.15 1019.58 1019.86 1019.99 1019.60 1018.20 1016.56 1015.91 1015.85 1015.76 1015.47 1015.51 1015.18 1014.93 1014.92 1015.09 1015.58 1016.04 1016.15 1015.94 1016.50 1016.76 1017.23 1017.69 1018.06 1018.67 1019.31 1019.70 1020.03 1020.45 1020.55 1020.77 1021.17 1021.43 1021.83 1022.15
1015.45 1016.15 1016.84 1017.42 1017.42 1017.90 1018.60 1018.83 1019.46 1019.95 1020.48 1020.56 1020.25 1019.88 1016.47 1015.86 1015.81 1015.25 1014.60 1014.37 1013.84 1013.71 1013.49 1013.76 1014.46 1014.65 1015.20 1015.63 1015.90 1016.11 1016.41 1017.02 1017.27 1017.76 1018.15 1018.68 1019.17 1019.42 1019.95 1020.45 1020.78 1021.02 1021.43 1021.78
1015.37 1015.56 1015.95 1016.40 1017.18 1017.50 1018.48 1019.34 1020.25 1021.07 1021.48 1021.13 1020.21 1019.92 1016.84 1015.82 1014.53 1013.71 1013.06 1012.77 1012.78 1012.85 1013.37 1013.70 1013.83 1014.41 1014.75 1014.89 1015.62 1015.97 1016.14 1016.50 1016.89 1017.33 1017.71 1018.02 1018.32 1018.90 1019.48 1019.98 1020.56 1020.88 1021.34 1021.61
1015.50 1015.88 1015.98 1015.90 1017.11 1018.00 1018.18 1019.64 1021.12 1022.28 1022.22 1021.24 1020.40 1019.99 1016.19 1014.79 1013.51 1013.02 1012.73 1012.55 1012.73 1013.09 1013.49 1013.74 1014.13 1014.21 1014.43 1014.56 1014.72 1015.25 1015.73 1015.99 1016.26 1016.68 1017.05 1017.34 1017.71 1018.40 1018.82 1019.35 1019.86 1020.49 1020.83 1021.16
1014.46 1015.91 1015.42 1015.01 1015.28 1016.32 1017.64 1018.53 1019.77 1021.47 1022.36 1021.53 1020.84 1018.38 1015.08 1013.50 1012.68 1012.61 1012.53 1012.59 1012.89 1013.10 1013.41 1013.94 1014.02 1014.04 1014.15 1014.64 1014.80 1015.40 1015.65 1015.63 1015.81 1016.33 1016.81 1017.10 1017.57 1018.06 1018.52 1018.90 1019.42 1019.83 1020.13 1020.34
1012.74 1014.22 1014.67 1014.55 1014.60 1015.22 1017.25 1017.82 1018.57 1020.64 1022.64 1021.99 1019.47 1017.26 1015.09 1012.93 1012.04 1012.30 1012.35 1012.85 1012.66 1013.03 1013.13 1013.79 1014.26 1014.12 1014.32 1014.47 1014.66 1015.29 1015.36 1015.68 1015.96 1016.17 1016.42 1016.74 1017.28 1017.81 1018.24 1018.59 1019.06 1019.31 1019.64 1019.85
1011.26 1013.73 1014.66 1014.71 1014.54 1015.16 1015.03 1016.43 1018.20 1019.45 1021.10 1021.21 1018.84 1017.48 1015.07 1013.01 1012.35 1012.35 1012.15 1012.22 1012.68 1012.71 1013.03 1013.91 1014.75 1015.06 1014.55 1014.98 1015.03 1015.18 1015.39 1015.78 1016.09 1016.38 1016.43 1016.73 1017.12 1017.63 1017.90 1018.15 1018.54 1018.88 1019.18 1019.50
1010.96 1012.12 1015.07 1014.84 1014.15 1014.14 1015.39 1015.66 1016.58 1017.62 1018.97 1019.06 1018.57 1015.94 1013.15 1012.45 1012.61 1012.14 1012.19 1011.91 1012.02 1012.63 1013.26 1013.82 1014.53 1015.12 1015.45 1015.38 1015.74 1015.47 1015.70 1015.91 1016.22 1016.36 1016.53 1016.94 1017.37 1017.77 1018.11 1018.16 1018.31 1018.72 1019.08 1019.37
1010.71 1012.38 1014.40 1014.43 1014.24 1013.93 1013.85 1014.04 1014.96 1016.28 1017.85 1018.17 1017.41 1013.60 1011.92 1011.78 1011.83 1011.61 1011.66 1011.58 1011.73 1012.50 1013.21 1013.97 1014.52 1015.07 1015.40 1015.73 1015.82 1015.98 1016.12 1016.04 1016.18 1016.33 1016.74 1017.06 1017.50 1017.95 1018.02 1018.23 1018.44 1018.77 1019.17 1019.33
1010.24 1011.67 1014.13 1015.13 1014.91 1014.32 1013.93 1013.93 1013.94 1014.92 1016.09 1016.43 1016.65 1012.01 1011.01 1011.46 1011.44 1011.04 1011.27 1011.49 1011.78 1012.17 1012.91 1013.72 1014.63 1014.97 1015.16 1015.52 1015.84 1016.05 1016.07 1016.36 1016.56 1016.85 1016.88 1017.18 1017.64 1017.84 1017.90 1018.23 1018.69 1018.96 1019.18 1019.65
1009.61 1011.19 1012.27 1012.91 1012.66 1013.69 1014.23 1013.87 1013.97 1014.53 1015.55 1014.45 1012.71 1011.16 1010.89 1010.61 1010.43 1010.55 1010.85 1011.13 1011.45 1012.00 1012.51 1013.38 1014.34 1014.66 1014.77 1015.09 1015.46 1015.68 1016.12 1016.32 1016.50 1016.75 1017.10 1017.42 1017.42 1017.66 1017.98 1018.38 1018.74 1019.09 1019.41 1019.90
1009.59 1011.34 1012.72 1013.16 1012.87 1012.87 1012.93 1013.01 1013.40 1013.67 1011.59 1013.20 1008.40 1010.55 1011.04 1010.37 1010.31 1010.32 1010.42 1010.89 1011.36 1011.76 1012.33 1012.91 1013.70 1014.28 1014.45 1014.82 1015.24 1015.49 1015.76 1015.86 1016.31 1016.80 1017.13 1017.34 1017.58 1017.72 1018.15 1018.67 1019.07 1019.38 1019.82 1020.16
1010.32 1012.05 1013.07 1014.15 1013.63 1013.25 1013.34 1012.89 1012.46 1011.00 1011.12 1010.67 1010.17 1009.83 1009.85 1009.96 1010.12 1010.43 1010.43 1010.98 1011.42 1011.43 1012.17 1012.52 1013.04 1013.49 1013.56 1013.73 1014.22 1015.02 1015.39 1015.87 1016.19 1016.54 1016.71 1017.16 1017.72 1018.08 1018.46 1018.91 1019.42 1019.83 1020.30 1020.63
1010.70 1012.28 1013.78 1014.70 1014.31 1013.97 1013.82 1010.18 1011.17 1010.47 1010.28 1009.48 1009.37 1008.52 1009.84 1010.01 1010.21 1009.91 1009.84 1009.72 1009.88 1010.60 1011.55 1011.95 1012.01 1012.16 1012.38 1012.79 1013.22 1013.94 1014.85 1015.57 1015.76 1016.11 1016.54 1017.22 1017.61 1018.27 1018.83 1019.25 1019.73 1020.16 1020.46 1020.88
1009.75 1011.72 1013.25 1014.73 1014.92 1013.85 1009.04 1009.38 1009.32 1009.48 1008.83 1008.65 1008.47 1009.12 1009.43 1009.65 1009.56 1009.20 1009.21 1009.26 1009.40 1010.37 1010.69 1010.78 1011.12 1011.38 1011.75 1012.47 1012.77 1013.59 1014.29 1014.93 1015.20 1015.66 1016.28 1016.98 1017.47 1018.15 1018.67 1019.14 1019.64 1020.21 1020.66 1021.21
1009.71 1011.11 1013.09 1014.27 1014.55 1011.90 1009.35 1009.24 1009.38 1009.21 1007.48 1008.44 1008.32 1008.89 1009.29 1009.47 1009.88 1008.81 1009.01 1008.88 1008.82 1008.87 1009.23 1009.72 1010.40 1010.98 1011.66 1011.84 1012.12 1012.95 1013.71 1014.21 1014.79 1015.24 1015.78 1016.29 1016.94 1017.72 1018.49 1019.19 1019.81 1020.35 1020.84 1021.41
1010.38 1010.87 1012.02 1013.39 1013.20 1011.51 1007.40 1008.35 1008.81 1009.08 1006.94 1007.43 1007.82 1008.34 1008.82 1009.30 1009.26 1007.12 1007.98 1008.03 1008.12 1008.42 1009.04 1009.54 1010.25 1010.75 1010.97 1011.51 1012.16 1012.85 1013.29 1013.75 1014.08 1014.31 1014.87 1015.80 1016.79 1017.58 1018.39 1019.03 1019.85 1020.37 1020.87 1021.40
1011.62 1011.83 1011.46 1012.68 1012.23 1009.28 1008.08 1007.33 1007.33 1008.69 1006.47 1006.14 1006.60 1007.39 1008.20 1008.52 1006.90 1007.36 1007.50 1008.23 1008.25 1008.96 1009.86 1010.21 1010.48 1010.78 1010.98 1011.26 1011.93 1012.47 1012.80 1012.85 1013.13 1014.21 1014.98 1015.94 1016.82 1017.47 1018.12 1019.00 1019.68 1020.43 1021.16 1021.68
1010.18 1010.92 1010.65 1011.42 1011.10 1008.88 1007.26 1007.41 1007.21 1006.24 1005.98 1005.84 1006.32 1006.88 1007.63 1008.15 1008.19 1008.67 1009.15 1008.94 1009.65 1010.34 1010.61 1011.00 1011.30 1011.52 1011.47 1011.45 1011.86 1012.30 1012.47 1012.72 1013.30 1014.13 1015.07 1015.80 1016.64 1017.37 1018.14 1018.72 1019.46 1020.28 1020.98 1021.65
1008.90 1007.40 1008.77 1009.04 1007.41 1006.77 1006.67 1006.56 1006.29 1006.52 1006.90 1006.88 1007.20 1007.33 1007.83 1008.33 1009.22 1009.31 1009.83 1010.15 1010.71 1011.22 1011.59 1011.67 1011.74 1011.96 1012.03 1011.97 1012.00 1012.42 1012.92 1013.29 1013.85 1014.56 1015.26 1015.88 1016.70 1017.37 1017.98 1018.79 1019.46 1020.36 1020.83 1021.47
1007.80 1007.67 1008.25 1008.63 1006.98 1006.65 1007.05 1006.46 1006.99 1007.21 1007.08 1007.49 1008.03 1008.17 1008.47 1009.54 1009.99 1010.52 1011.15 1011.50 1011.85 1012.35 1012.32 1012.36 1012.36 1012.50 1012.73 1012.86 1012.53 1012.39 1012.82 1013.41 1014.16 1015.02 1015.86 1016.57 1017.20 1017.89 1018.36 1018.78 1019.13 1019.59 1020.23 1020.77
1006.96 1007.53 1007.66 1007.55 1007.33 1007.47 1007.11 1006.70 1007.46 1008.01 1008.07 1008.42 1008.49 1009.16 1010.19 1010.50 1011.14 1011.52 1012.02 1012.66 1012.82 1013.02 1013.25 1013.55 1013.78 1013.91 1014.03 1013.82 1013.63 1013.53 1013.44 1013.55 1014.50 1015.34 1016.11 1016.77 1017.29 1017.69 1018.35 1018.67 1018.82 1019.22 1019.59 1019.77
1007.92 1007.63 1007.68 1007.12 1006.77 1006.90 1007.19 1007.26 1008.16 1008.70 1009.44 1009.76 1010.21 1011.02 1011.40 1011.38 1012.05 1012.58 1013.17 1013.69 1014.04 1014.14 1014.28 1014.51 1014.77 1015.03 1015.32 1015.22 1015.10 1015.00 1014.84 1014.82 1015.46 1016.32 1016.85 1017.15 1017.50 1017.95 1018.21 1018.72 1019.20 1019.01 1019.50 1019.69
Wind_Speed
5 6 10 10 12 4 5 4 5 4 4 4 7 9 13 6 5 7 8 8 9 13 9 7 9 11 10 10 12 13 13 13 10 8 8 7 8 8 8 8 10 9 8 9
5 15 7 9 7 6 4 3 4 4 1 3 4 11 11 5 7 8 10 9 12 7 7 8 8 10 13 15 14 13 16 14 13 10 9 5 7 6 7 7 8 10 10 10
10 9 10 10 7 7 4 6 4 5 2 2 3 8 9 8 5 6 7 9 6 12 14 12 12 15 12 15 16 16 16 15 14 14 7 3 2 1 4 5 6 8 11 11
6 5 13 7 7 7 7 6 4 4 3 4 1 8 6 8 10 6 11 10 14 14 13 10 9 11 16 18 13 15 15 17 15 16 12 14 12 10 9 8 7 8 10 9
10 11 11 12 10 9 7 6 6 3 2 2 2 3 8 3 5 9 12 15 16 18 17 15 14 13 10 8 12 13 13 14 15 15 16 12 13 10 7 4 8 8 6 8
5 1 10 12 4 8 10 7 7 5 2 5 8 7 6 6 10 8 10 14 18 16 7 7 6 7 9 7 8 7 12 14 13 14 16 15 15 13 7 7 7 5 4 5
4 3 2 6 9 4 6 7 1 2 1 7 2 3 10 7 10 9 12 10 7 7 7 7 9 8 8 8 9 8 11 12 12 14 14 15 14 12 11 9 7 6 5 4
13 8 9 6 9 11 9 9 7 8 5 4 1 10 8 10 11 8 9 8 4 6 5 7 8 7 7 7 6 6 7 8 12 12 12 10 10 7 7 8 6 6 6 6
12 6 1 3 5 12 6 7 8 7 2 3 6 7 10 12 16 4 10 5 10 9 7 7 6 4 5 5 6 7 7 5 7 10 8 8 7 9 7 7 8 6 6 4
6 7 2 3 6 4 10 13 6 2 3 5 5 6 8 7 9 7 10 8 8 8 6 2 3 4 0 2 4 5 5 6 6 6 5 4 4 4 4 6 8 8 5 5
6 6 3 5 9 12 5 7 2 6 6 6 2 8 10 9 5 6 8 8 8 7 6 6 3 0 1 3 1 3 4 5 5 4 4 5 5 5 5 4 4 5 5 5
2 7 5 6 2 2 2 7 11 9 6 3 3 11 5 8 6 4 8 6 4 4 5 5 5 5 4 5 4 5 4 4 4 5 4 4 4 4 5 5 5 5 5 5
8 1 5 5 4 2 9 2 11 6 4 8 7 10 2 6 7 4 6 5 3 4 5 4 5 6 6 5 5 4 4 4 4 4 5 5 5 4 5 4 5 6 7 7
13 4 8 12 3 10 6 8 7 8 4 7 20 10 3 6 4 3 3 6 5 7 8 6 6 7 7 7 6 6 5 5 5 5 4 5 5 5 5 6 6 6 6 8
7 17 4 4 3 8 6 11 14 19 30 14 23 19 10 9 8 4 4 3 4 6 7 7 7 7 7 7 6 6 6 6 6 6 5 5 5 5 6 6 5 6 6 6
3 1 5 4 1 4 4 11 22 29 23 27 18 7 3 12 4 5 6 6 8 6 7 8 9 9 10 10 10 7 7 7 9 7 7 6 5 6 6 6 6 6 5 5
8 7 5 10 3 6 4 26 20 21 19 23 24 8 7 6 9 11 11 9 9 8 9 9 11 12 9 11 9 11 10 8 9 11 7 7 7 7 6 6 6 6 7 5
17 14 4 4 3 7 18 14 21 22 19 23 24 4 9 11 12 10 8 10 9 8 11 11 9 7 7 6 7 7 9 9 9 8 8 8 9 9 8 8 8 6 5 6
4 7 4 7 4 7 17 7 8 10 23 15 19 18 6 4 3 10 10 10 15 14 12 8 5 6 7 9 8 9 9 9 9 10 11 12 11 10 9 8 7 4 6 5
6 4 6 4 12 18 9 15 7 11 25 12 16 17 16 11 15 13 12 10 12 9 4 4 3 4 6 5 7 9 10 10 13 13 13 9 8 9 9 8 7 4 3 6
6 2 17 4 11 12 7 3 13 12 7 8 8 11 11 15 21 3 5 3 3 3 3 3 1 2 2 5 7 9 8 14 9 7 7 7 7 8 8 8 4 6 6 7
14 12 9 5 10 24 5 5 15 10 6 5 5 6 9 7 2 3 4 6 7 5 5 5 3 2 2 3 6 7 9 6 8 9 9 9 8 6 6 9 7 7 9 9
5 9 7 14 12 1 6 6 1 2 5 3 5 4 2 7 4 3 4 4 3 4 2 2 3 2 4 3 4 4 2 5 6 7 7 8 8 7 8 9 9 8 8 8
3 5 5 4 6 6 8 4 3 2 5 5 3 5 4 5 3 5 4 4 4 4 5 4 4 4 4 5 2 3 7 7 8 7 7 6 8 6 5 5 7 8 8 8
5 10 7 3 4 4 2 6 7 4 5 8 8 5 4 7 4 4 5 5 5 5 4 5 5 4 4 4 4 4 3 7 8 7 7 6 5 7 7 4 7 7 3 7
1 4 9 7 10 6 5 9 7 8 6 7 9 7 5 6 7 6 6 5 4 4 3 4 5 4 5 5 5 5 4 4 7 6 5 5 5 4 5 6 4 4 7 8
Wind_Direction
174 168 188 169 200 193 155 148 191 225 227 170 209 234 263 217 232 225 238 233 233 224 231 210 197 194 188 192 199 195 192 198 184 185 190 206 210 205 206 200 198 196 192 190
130 205 177 158 185 154 148 175 237 298 118 152 273 259 248 199 229 215 221 223 231 238 209 213 195 193 198 205 204 199 204 194 192 192 199 193 188 209 208 198 201 193 192 190
174 177 163 154 157 158 162 163 190 211 20 229 317 269 233 240 220 235 240 240 222 224 238 228 199 205 205 210 203 205 204 199 195 196 183 142 146 123 188 201 208 211 199 196
177 157 158 150 173 138 174 203 165 180 100 234 94 278 273 233 234 211 235 233 241 229 235 234 203 202 209 218 206 206 202 202 197 191 190 200 206 208 211 200 205 200 201 202
193 152 152 178 177 153 207 147 149 120 147 1 314 300 278 7 262 249 237 234 232 237 227 215 209 217 209 206 204 208 202 204 196 196 199 201 211 216 211 184 196 197 199 203
165 137 164 178 117 144 146 83 55 56 81 267 204 192 250 203 213 224 233 229 228 235 229 243 224 213 222 199 200 192 195 205 195 194 202 204 210 212 193 197 202 202 197 207
123 191 152 130 95 52 105 111 36 317 242 231 351 238 259 262 243 219 242 260 238 237 253 250 231 219 221 203 198 192 194 202 193 196 197 202 207 206 208 203 200 181 194 205
164 204 176 181 160 158 168 152 158 195 204 252 21 240 245 237 277 260 228 240 252 244 257 267 255 225 207 210 184 185 194 191 196 201 206 200 201 201 207 201 189 199 202 212
168 198 9 146 133 139 187 191 161 110 53 39 229 290 291 268 270 275 276 218 237 258 247 258 257 232 194 174 167 188 183 181 186 204 199 183 181 199 198 180 192 200 202 202
181 114 352 140 96 41 174 147 136 102 172 256 276 273 237 281 264 314 270 246 255 242 225 242 267 239 99 170 124 129 143 170 177 182 186 184 182 191 182 177 185 192 188 171
142 100 194 147 208 166 137 180 126 129 168 177 250 258 216 227 269 279 287 255 229 240 216 194 197 238 138 63 132 122 150 161 161 158 152 176 203 215 216 206 173 174 168 167
188 112 144 186 238 196 203 176 174 184 209 243 132 253 224 218 224 211 265 279 246 212 192 187 175 162 156 186 182 182 174 151 156 150 142 142 160 184 183 194 194 160 153 133
174 165 93 38 326 185 214 212 188 103 88 198 151 258 203 208 231 231 243 265 253 182 168 164 166 191 189 197 187 186 175 177 161 140 131 139 157 164 169 149 133 132 126 126
156 126 157 196 217 132 175 186 172 163 178 193 231 217 322 244 229 213 245 235 216 197 183 187 200 205 202 198 194 185 194 186 158 156 165 163 152 143 137 133 131 131 134 137
146 206 119 44 162 160 174 181 182 197 225 192 252 226 211 239 189 219 222 181 210 209 194 201 204 214 212 206 199 193 194 172 169 172 169 170 153 131 123 119 120 123 129 134
39 239 103 5 26 136 168 191 199 212 215 236 246 264 222 224 251 219 208 208 233 231 243 211 211 215 216 202 196 183 189 189 178 177 173 158 144 137 139 135 138 129 126 125
140 123 106 225 156 100 339 217 205 224 214 227 233 234 183 223 238 260 265 259 250 217 222 222 216 214 213 209 179 193 184 178 176 179 163 160 152 151 157 151 147 150 156 143
178 177 128 160 97 198 249 163 201 213 218 223 245 195 189 203 226 237 228 231 239 230 229 228 222 219 223 200 180 157 172 184 178 167 161 164 161 166 165 163 168 149 142 156
141 155 127 147 211 297 270 195 146 165 251 223 234 240 196 202 265 255 234 222 229 230 236 226 197 193 187 192 177 174 181 174 173 179 178 177 174 167 166 169 163 142 141 143
71 157 175 134 207 223 299 184 151 114 269 183 208 219 209 175 231 232 229 231 242 240 264 287 214 182 180 183 169 169 184 177 196 190 185 169 164 164 166 161 157 137 150 139
152 131 206 176 221 263 245 170 137 191 237 192 180 217 218 205 224 197 225 165 73 77 29 12 142 230 244 168 165 193 173 201 193 158 133 138 148 157 159 148 139 142 134 123
170 174 196 197 228 250 151 60 175 230 218 148 138 168 189 223 196 128 59 53 38 23 23 21 11 34 40 145 172 188 198 156 137 143 157 161 161 149 148 153 140 137 139 139
208 187 176 198 209 290 181 190 130 153 153 118 130 138 160 139 201 117 128 109 62 34 14 14 16 48 35 56 149 151 141 135 132 142 149 147 141 150 153 153 149 146 149 152
232 160 189 123 193 198 201 162 180 152 126 121 118 108 95 138 113 96 92 71 62 22 18 11 32 50 21 357 45 158 150 135 127 126 130 136 146 143 140 147 160 156 166 165
180 148 162 279 358 18 318 200 162 132 102 99 68 71 107 126 92 78 71 50 58 48 22 15 16 21 16 358 24 13 103 127 129 131 141 146 148 158 156 156 168 177 181 181
273 172 195 212 198 173 201 135 140 126 130 119 117 93 48 79 96 92 67 44 32 44 35 47 39 42 11 15 28 28 32 90 124 126 144 158 152 156 158 155 134 145 160 159